User: anonymous   Login
Location: Bismarck
(46.7731°N, 100.8200°W)
Time: 06:50:08
(UTC-05:00)
Language:

Landsat 7 - Orbit

View from above orbital plane
View from above orbital plane
View from above satellite
View from above satellite

Ground track
Ground track

The orbit data is extracted from the following two-line orbital elements,

1 25682U 99020A   15147.19229706 -.00000149  00000-0 -23110-4 0  9994
2 25682 098.2179 217.3870 0001180 088.8988 271.2254 14.57111540857088
Epoch (UTC): 27 May 2015 04:36:54
Eccentricity: 0.0001180
inclination: 98.2179°
perigee height: 701 km
apogee height: 703 km
right ascension of ascending node: 217.3870°
argument of perigee: 88.8988°
revolutions per day: 14.57111540
mean anomaly at epoch: 271.2254°
orbit number at epoch: 85708

The dashed part of the orbit path shows where the satellite is in the earth's shadow,  

DLR